Погода Петропавловск-Камч.

Хотите узнать прогноз погоды Петропавловск-Камч.? Тогда Вам сюда: Погода Петропавловск-Камч.

Поиск расширенной информации на нашем сайте:

Полезная информация:

Новости сайта



02.01.2020
Опубликован Долгосрочный прогноз погоды по городам России и ближнего зарубежья на январь 2020 года.
Карты: Прогноз на январь и февраль 2020 года, Сравнение прогнозируемой аномалии приземной температуры воздуха на январь 2020 года по разным моделям.




Погода Петропавловск-Камч. - сегодня

Время (UTC), дата Ветер
(°,м/с) 
Видим.   Явления Облачность Т
(°С)
Тd
(°С)
f(%) Тe
(°С)
Pmin
(гПа)
dP
(гПа)
Po
(мм)
O2
(г/м3)
Тmin Tmax R s Состояние
почвы
21 22.10.20 320 (СЗ) 20000 м    4/1 600 м верхняя 
[Sc|Ci fib]
+1.6 -1.7 79 -1  1027.9  1.1  769  308  +1.1         
00 23.10.20 320 (СЗ) 20000 м    3/0 верхняя 
[Ci fib]
+5.8 -1.1 61 +4  1028.1  0.2  769  303           
03 23.10.20 150 (ЮВ) 20000 м    1/1 1000 м 
[Sc]
+8.1 -0 57 +8  1027.5  -0.6  768  301           
06 23.10.20 130 (ЮВ) 20000 м    3/1 600 м верхняя 
[Sc|Ci fib]
+7.4 +3.3 75 +6  1027.8  0.3  769  301           
09 23.10.20 120 (ЮВ) 20000 м    6/6 600 м 
[Sc]
+6.7 +3.6 81 +7  1028.5  0.7  769  302    +9.3       
12 23.10.20 тихо ()   20000 м    9/9 300 м 
[Sc]
+5.4 +2.8 83 +5  1029.5  770  304           
15 23.10.20 тихо ()   10 км  слаб. ливневой дождь  10/10 200 м кучево-дожд. 
[Cb cap]
+5.1 +3.5 89 +5  1028.8  -0.7  769  304           
18 23.10.20 160 (Ю) 10 км  в посл. час ливневой дождь  10/10 300 м 
[St]
+3.6 +1.7 87 +4  1028.7  0.1  769  306           
21 23.10.20 180 (Ю) 10 км  слаб. ливневой дождь  10/10 300 м кучево-дожд. 
[Cb cap]
+3.8 +1.5 85 +5  1027  -1.7  768  305  +3.5    0.4     
00 24.10.20 130 (ЮВ) 10 км  слаб. ливневой дождь  10/10 300 м кучево-дожд. 
[Cb cap]
+6.9 +3 76 +6  1025.9  -1.1  767  301           
03 24.10.20 140 (ЮВ) 4{10}  10 км  слаб. ливневой дождь  10/10 300 м кучево-дожд. 
[Cb cap]
+6.9 +3 76 +6  1023.5  -2.4  765  300           
06 24.10.20 130 (ЮВ) 4{10}  10 км  слаб. ливневой дождь  10/10 600 м кучево-дожд. 
[Cb cap]
+6.2 +1.5 72 +5  1022  -1.5  764  301           
09 24.10.20 110 (В) 5{12}  10 км  слаб. ливневой дождь  10/10 300 м кучево-дожд. 
[Cb cap]
+5.7 +1.4 74 +4  1021  -1.1  764  301    +7.2  0.4     
12 24.10.20 130 (ЮВ) 5{13}  10 км  ливневой дождь  10/10 600 м кучево-дожд. 
[Cb cap]
+4.8 +2.4 84 +3  1019.4  -1.6  762  302           
15 24.10.20 120 (ЮВ) 5-12{12}  10 км  ливневой дождь  10/10 200 м кучево-дожд. 
[Cb cap]
+4.5 +2.4 86 +2  1017.1  -2.3  761  301           
18 24.10.20 110 (В) 5-12{13}  4000 м  ливневой дождь  10/10 200 м кучево-дожд. 
[Cb cap]
+4.8 +2.3 84 +3  1013.8  -3.3  758  300           
21 24.10.20 100 (В) 6-14{15}  4000 м  ливневой дождь  10/10 300 м кучево-дожд. 
[Cb cap]
+4.6 +1.9 83 +2  1011  -2.8  756  299  +4.3    39     
00 25.10.20 100 (В) 4-10{16}  4000 м  ливневой дождь  10/10 300 м кучево-дожд. 
[Cb cap]
+2.6 +0.5 86 +1  1007.4  -3.6  753  301  +2.6         
03 25.10.20 070 (В) 5-14{17}  2000 м  ливневой дождь  10/10 600 м кучево-дожд. 
[Cb cap]
+2.9 +0.5 84 1002.7  -4.7  750  299           
06 25.10.20 070 (В) 9-22{22}  10 км  ливневой дождь  10/10 600 м кучево-дожд. 
[Cb cap]
+4.9 +0.9 75 +1  999.8  -2.9  748  296           
09 25.10.20 060 (СВ) 9-18{23}  10 км  в посл. час ливневой дождь  10/10 300 м 
[Sc]
+7.2 +1.1 65 +4  998.3  -1.4  747  293    +7.2  56     
12 25.10.20 360 (С) 4{20}  10 км  слаб. ливневой дождь  10/10 300 м кучево-дожд. 
[Cb cap]
+4.7 +2.4 85 +3  997.8  -0.5  746  295           
15 25.10.20 010 (С) 10 км  слаб. ливневой дождь  10/10 300 м кучево-дожд. 
[Cb cap]
+4.5 +2.3 86 +3  997.6  -0.2  746  295           
18 25.10.20 360 (С) 10 км  слаб. ливневой дождь  10/10 300 м кучево-дожд. 
[Cb cap]
+4.2 +2.5 89 +3  997.6  746  296           
21 25.10.20 010 (С) 4000 м  слаб. ливневой дождь  10/10 100 м кучево-дожд. 
[Cb cap]
+4.2 +2.9 91 +3  998.3  0.7  747  296  +3.9       
Время (UTC), дата Ветер
(°,м/с) 
Видим.   Явления Облачность Т
(°С)
Тd
(°С)
f(%) Тe
(°С)
Pmin
(гПа)
dP
(гПа)
Po
(мм)
O2
(г/м3)
Тmin Tmax R s Состояние
почвы

Для получения пояснительной информации подведите курсор к названию столбца.

ПОГОДА Петропавловск-Камч. - архив

Всё, что Вы хотите узнать о погоде Петропавловск-Камч. - удобно и подробно!

Выберите нужную дату (начиная с 1 января 2019* года) и нажмите кнопку "Найти".
Будут отображены архивные сводки погоды по пункту Петропавловск-Камч., начиная с указанной даты.


Отображать данные в формате CSV (для использования в таблицах Excel)


Внимание! Наш архив погоды предназначен исключительно для личного некоммерческого использования в познавательных целях. Если Вам необходимы официальные справки о состоянии погоды (для производственных, юридических, коммерческих и т.п. целей), обращайтесь в органы Росгидромета.

*Примечание: данная дата относится к архиву по метеостанциям СССР (Россия, СНГ, Балтия).
Архив по метеостанциям Зарубежной Европы и Азии (кроме Китая) хранится 10 дней, по другим регионам земного шара (Китай, Африка, Америка, Австралия, Океания) - 1 день.

Петропавловск-Камч. - район местоположения метеостанции


Название, широта, долгота, высота метеостанции:
Петропавловск-Камч. (обсерватория) 53°ш. 158.6°д. 24 м над ур. моря [Российская Федерация]

Дополнительная информация

В oтличие oт бoльшинства пoгoдных сайтoв мы публикуем пoдрoбную метеoинфoрмацию в детальнoм прoфессиoнальнoм фoрмате.

Характеристики температуры и влажнoсти вoздуха измеряются на высoте 2 м в тени вдали oт зданий и деревьев.
Скoрoсть ветра измеряется на высoте 10 м (на урoвне рoста челoвека скoрoсть ветра ниже в 1.5-2 раза). Если метеoстанция нахoдится в гoрoде или в лесу, тo скoрoсть ветра занижена на 2-4 м/с пo сравнению с oткрытым местoм. Скoрoсть ветра над акватoриями крупных рек и oзёр, а также на вершинах хoлмoв на 2-5 м/с выше, чем в oбычных услoвиях.
Атмoсфернoе давление в разных тoчках местнoсти мoжет значительнo oтличаться oт давления на метеoстанции, в зависимoсти oт услoвий рельефа (при пoдъёме на 10 м давление пoнижается примернo на 1 мм рт.ст.).